Terug naar catalogus

GLOBALSTAR M041

ActiefCommunicatieLEO
NORAD 25650·PAYLOAD·🇺🇸 United States

Gelanceerd Mar 15, 1999 vanaf Baikonur Cosmodrome

Loading…

Volgende Passages (komende 24 uur)

TLE

VersSource: Space-Track

Epoch: Sep 14, 2026, 18:27 UTC

1 25650U 99012B   26257.76921579 -.00000088  00000-0 -39013-4 0  9995
2 25650  52.0041  30.4295 0002571 124.3905 235.7175 11.96682382232704

Volg GLOBALSTAR M041 in realtime met AllMySat

Download on the App Store